Regional Weather Roundup
Issued by NWS Spokane, WA

Home | Current Version | Previous Version | Text Only | Print | Product List | Glossary On
Versions: 1 2 3 4 5 6 7 8 9 10 11 12 13 14 15 16 17 18 19 20 21 22 23 24 25 26 27 28 29 30 31 32 33 34 35 36 37 38 39 40 41 42 43 44 45 46 47 48 49 50
000
NZUS01 KOTX 210410
RWROTX
EASTERN WASHINGTON/NORTHERN IDAHO ROUNDUP
NATIONAL WEATHER SERVICE, SPOKANE WA
900 PM PDT SAT SEP 20 2014

Note: "fair" indicated few or no clouds below 12,000 feet with no
significant weather and/or obstructions to visibility.

...NORTHEAST WASHINGTON AND NORTHERN IDAHO PANHANDLE...

CITY           SKY/WX    TMP DP  RH WIND       PRES   REMARKS
SPOKANE INTL   CLEAR     70  44  39 NE7       30.05F
SPOKANE DOWNTO CLEAR     63  41  44 CALM      30.05S
COEUR D ALENE  CLEAR     61  45  55 NE7       30.06S
DEER PARK      CLEAR     63  44  50 CALM      30.07S
SANDPOINT      CLEAR     54  46  76 CALM      30.09R

...SOUTHEAST WASHINGTON AND SOUTHERN IDAHO PANHANDLE...

CITY           SKY/WX    TMP DP  RH WIND       PRES   REMARKS
WALLA WALLA    CLEAR     69  48  47 E7        29.95F
PULLMAN/MOSCOW CLEAR     63  34  33 CALM      30.05S
LEWISTON       CLEAR     73  39  29 S7        29.97R
LOWELL           N/A     61  55  81 N3        30.03R

...COLUMBIA BASIN...

CITY           SKY/WX    TMP DP  RH WIND       PRES   REMARKS
EPHRATA        CLEAR     72  39  30 N8        29.99F
MOSES LAKE     CLEAR     67  42  40 N7        30.00S
TRI CITIES     CLEAR     66  54  65 NW7       29.93R
HERMISTON      CLEAR     69  49  48 CALM      29.92F
PENDLETON      CLEAR     74  47  38 CALM      29.96F

...EAST SLOPES CASCADES...

CITY           SKY/WX    TMP DP  RH WIND       PRES   REMARKS
THE DALLES     CLEAR     74  47  38 NW3       29.92R
YAKIMA         CLEAR     64  50  60 W10       29.99S
ELLENSBURG     CLEAR     64  48  56 N9        30.03R
WENATCHEE      CLEAR     78  45  30 CALM      30.01S
OMAK           CLEAR     72  38  29 NW10      30.04R

...SOUTHERN BRITISH COLUMBIA...

CITY           SKY/WX    TMP DP  RH WIND       PRES   REMARKS
PENTICTON      CLEAR     63  43  48 NE8       30.08R
CASTLEGAR      CLEAR     61  50  67 N8        30.11R
CRANBROOK      CLEAR     61  45  55 W7        30.20R

...WESTERN MONTANA...

CITY           SKY/WX    TMP DP  RH WIND       PRES   REMARKS
MISSOULA       CLEAR     63  40  42 N3        30.15S

...NEIGHBORING CITIES...

CITY           SKY/WX    TMP DP  RH WIND       PRES   REMARKS
SEATTLE        CLEAR     65  56  72 N10       29.91F
CALGARY        CLEAR     59  39  47 SW7       30.22R



USA.gov is the U.S. government's official web portal to all federal, state and local government web resources and services.